This is the latest recevied weather packets stored in our database for station/object OE-11061. If no packets are shown the sender has not sent any weather packets the latest 10 day(s).
| Time | Temp. | Humidity | Pressure | Rain* | Wind** | Luminosity | Snow |
|---|---|---|---|---|---|---|---|
| 1787769694 | 20° C | 80% | 1015.7 hPa | 0 mm | - | 0 W/m² | - |
| 1787769321 | 20° C | 80% | 1015.7 hPa | 0 mm | - | 0 W/m² | - |
| 1787768721 | 20.56° C | 79% | 1015.6 hPa | 0 mm | - | 0 W/m² | - |
| 1787767894 | 21.11° C | 78% | 1015.4 hPa | 0 mm | - | 7 W/m² | - |
| 1787767521 | 21.67° C | 76% | 1015.4 hPa | 0 mm | - | 15 W/m² | - |
| 1787766921 | 22.22° C | 75% | 1015.2 hPa | 0 mm | - | 30 W/m² | - |
| 1787766094 | 23.33° C | 71% | 1015.1 hPa | 0 mm | - | 67 W/m² | - |
| 1787765721 | 23.33° C | 68% | 1014.9 hPa | 0 mm | - | 75 W/m² | - |
| 1787765120 | 23.89° C | 62% | 1015 hPa | 0 mm | - | 97 W/m² | - |
| 1787764294 | 23.89° C | 64% | 1014.9 hPa | 0 mm | - | 105 W/m² | - |
| 1787763921 | 24.44° C | 62% | 1014.9 hPa | 0 mm | - | 149 W/m² | - |
| 1787763320 | 24.44° C | 61% | 1014.8 hPa | 0 mm | - | 209 W/m² | - |
| 1787762494 | 25° C | 60% | 1014.8 hPa | 0 mm | - | 239 W/m² | - |
| 1787762121 | 25° C | 57% | 1014.9 hPa | 0 mm | - | 224 W/m² | - |
| 1787761521 | 25° C | 56% | 1015 hPa | 0 mm | - | 246 W/m² | - |
| 1787760694 | 25° C | 55% | 1015 hPa | 0 mm | - | 179 W/m² | - |
| 1787760321 | 25° C | 54% | 1015.1 hPa | 0 mm | - | 232 W/m² | - |
| 1787759721 | 25° C | 54% | 1015.2 hPa | 0 mm | - | 246 W/m² | - |
| 1787758894 | 25° C | 52% | 1015.3 hPa | 0 mm | - | 284 W/m² | - |
| 1787758520 | 25.56° C | 51% | 1015.3 hPa | 0 mm | - | 381 W/m² | - |
| 1787757921 | 25.56° C | 51% | 1015.2 hPa | 0 mm | - | 418 W/m² | - |
| 1787757094 | 25.56° C | 58% | 1015.2 hPa | 0 mm | - | 448 W/m² | - |
| 1787756721 | 25.56° C | 55% | 1015.3 hPa | 0 mm | - | 448 W/m² | - |
| 1787756121 | 25.56° C | 52% | 1015.6 hPa | 0 mm | - | 530 W/m² | - |
| 1787755294 | 25.56° C | 51% | 1015.6 hPa | 0 mm | - | 568 W/m² | - |
* Rain latest hour (hover to see other rain measurements)
** Current wind speed in m/s (hover to see current wind gust speed)